Location: Unspecified
(0.0000°N, 0.0000°E)
Time: 10:31:50
(UTC+00:00)

Vanguard 1 - All Passes

Search period start: 16 October 2018 00:00
Search period end: 26 October 2018 00:00
Orbit: 650 x 3833 km, 34.2° (Epoch: 14 October)

Date Brightness Start Highest point End Pass type
(mag) Time Alt. Az. Time Alt. Az. Time Alt. Az.
16 Oct - 06:47:44 10° NW 06:53:19 88° SW 07:03:15 10° SE daylight
16 Oct - 09:09:24 10° WSW 09:16:35 26° SSW 09:27:59 10° SSE daylight
16 Oct - 11:36:54 10° SW 11:45:38 16° S 11:56:43 10° SSE daylight
16 Oct - 14:03:37 10° SSW 14:19:30 24° SSE 14:36:14 10° ESE daylight
16 Oct - 16:28:19 10° SW 16:50:56 50° SSE 17:08:01 10° ENE daylight
16 Oct - 18:55:32 10° WSW 19:17:44 75° NW 19:30:43 10° NE visible
16 Oct - 21:29:54 10° W 21:40:51 22° NW 21:48:19 10° N visible
17 Oct - 04:51:04 10° N 04:54:21 18° NE 04:58:23 10° E visible
17 Oct - 07:08:45 10° WNW 07:14:27 58° SSW 07:24:33 10° SE daylight
17 Oct - 09:31:58 10° WSW 09:38:51 20° SSW 09:48:56 10° SSE daylight
17 Oct - 12:00:00 10° SSW 12:09:11 16° S 12:20:30 10° SE daylight
17 Oct - 14:25:00 10° SSW 14:42:46 29° SSE 15:00:38 10° ESE daylight
17 Oct - 16:49:33 10° SW 17:13:01 62° SE 17:29:55 10° ENE daylight
17 Oct - 19:17:52 10° WSW 19:38:57 59° NW 19:51:23 10° NE visible
17 Oct - 21:55:25 10° WNW 22:02:14 15° NW 22:07:30 10° N visible
18 Oct - 05:10:52 10° NNW 05:15:06 32° NE 05:21:00 10° ESE visible
18 Oct - 07:30:08 10° W 07:35:52 38° SSW 07:45:35 10° SE daylight
18 Oct - 09:55:03 10° SW 10:01:25 16° S 10:10:00 10° SSE daylight
18 Oct - 12:22:25 10° SSW 12:32:50 17° SSE 12:45:26 10° SE daylight
18 Oct - 14:46:10 10° SSW 15:05:38 35° SSE 15:24:23 10° E daylight
18 Oct - 17:10:55 10° SW 17:34:53 75° SE 17:51:28 10° ENE daylight
18 Oct - 19:40:42 10° WSW 20:00:06 45° NW 20:11:53 10° NNE visible
19 Oct - 05:31:14 10° NW 05:35:52 59° NE 05:42:54 10° ESE daylight
19 Oct - 07:51:55 10° W 07:57:33 27° SSW 08:06:22 10° SSE daylight
19 Oct - 10:18:33 10° SSW 10:24:16 14° S 10:31:27 10° SSE daylight
19 Oct - 12:44:11 10° SSW 12:56:24 19° SSE 13:10:56 10° ESE daylight
19 Oct - 15:07:13 10° SW 15:28:11 43° SSE 15:47:28 10° E daylight
19 Oct - 17:32:30 10° SW 17:56:30 90° NW 18:12:42 10° NE visible
19 Oct - 20:04:11 10° W 20:21:19 34° NW 20:32:11 10° NNE visible
20 Oct - 05:52:00 10° WNW 05:56:46 79° SW 06:04:19 10° SE daylight
20 Oct - 08:14:15 10° WSW 08:19:28 19° SSW 08:26:56 10° SSE daylight
20 Oct - 10:42:01 10° SSW 10:47:24 13° S 10:53:52 10° SSE daylight
20 Oct - 13:05:28 10° SSW 13:19:42 23° SSE 13:36:19 10° ESE daylight
20 Oct - 15:28:15 10° SW 15:50:25 52° SE 16:09:59 10° ENE daylight
20 Oct - 17:54:22 10° WSW 18:18:00 74° NW 18:33:40 10° NE visible
20 Oct - 20:28:29 10° W 20:42:41 25° NW 20:52:16 10° NNE visible
21 Oct - 03:54:54 10° N 03:57:52 17° NE 04:01:05 10° E visible
21 Oct - 06:13:07 10° WNW 06:17:54 46° SSW 06:25:22 10° SE daylight
21 Oct - 08:37:17 10° SW 08:41:37 14° SSW 08:47:14 10° SSE daylight
21 Oct - 11:04:41 10° SSW 11:10:43 13° S 11:17:55 10° SSE daylight
21 Oct - 13:26:28 10° SSW 13:42:40 28° SSE 14:01:06 10° E daylight
21 Oct - 15:49:22 10° SW 16:12:26 64° SE 16:32:01 10° ENE daylight
21 Oct - 18:16:37 10° WSW 18:39:22 60° NW 18:54:26 10° NE visible
21 Oct - 20:53:46 10° WNW 21:04:18 18° NW 21:12:01 10° N visible
22 Oct - 04:14:46 10° NNW 04:18:44 32° NE 04:23:27 10° ESE visible
22 Oct - 06:34:40 10° W 06:39:16 29° SSW 06:46:05 10° SSE daylight
22 Oct - 09:01:27 10° SSW 09:04:03 11° S 09:07:01 10° S daylight
22 Oct - 11:26:20 10° SSW 11:34:03 14° SSE 11:43:28 10° SE daylight
22 Oct - 13:47:21 10° SSW 14:05:17 35° SSE 14:25:09 10° E daylight
22 Oct - 16:10:36 10° SW 16:34:15 77° SE 16:53:39 10° ENE daylight
22 Oct - 18:39:23 10° WSW 19:00:45 47° NW 19:15:02 10° NNE visible
22 Oct - 21:20:31 10° NW 21:26:14 13° NNW 21:31:00 10° N visible
23 Oct - 04:35:14 10° NW 04:39:34 64° NE 04:45:07 10° ESE visible
23 Oct - 06:56:47 10° WSW 07:00:52 19° SSW 07:06:26 10° SSE daylight
23 Oct - 11:47:22 10° SSW 11:57:16 17° SSE 12:09:38 10° ESE daylight
23 Oct - 14:08:11 10° SSW 14:27:34 43° SE 14:48:27 10° E daylight
23 Oct - 16:32:04 10° SW 16:55:56 88° NW 17:14:58 10° NE daylight
23 Oct - 19:02:47 10° W 19:22:13 37° NW 19:35:28 10° NNE visible
24 Oct - 04:56:07 10° WNW 05:00:30 67° SW 05:06:18 10° SE visible
24 Oct - 07:19:50 10° SW 07:22:41 13° SSW 07:26:08 10° S daylight
24 Oct - 12:08:06 10° SSW 12:20:13 22° SSE 12:35:31 10° ESE daylight
24 Oct - 14:29:02 10° SW 14:49:37 53° SE 15:11:09 10° ENE daylight
24 Oct - 16:53:49 10° WSW 17:17:32 74° NW 17:36:02 10° NE daylight
24 Oct - 19:26:58 10° W 19:43:54 28° NW 19:55:46 10° NNE visible
25 Oct - 02:58:09 10° NNW 03:01:28 19° NNE 03:04:40 10° E visible
25 Oct - 05:17:26 10° W 05:21:34 36° SSW 05:27:03 10° SE visible
25 Oct - 12:28:44 10° SSW 12:42:50 27° SSE 13:00:42 10° E daylight
25 Oct - 14:50:01 10° SW 15:11:29 65° SE 15:33:19 10° ENE daylight
25 Oct - 17:15:57 10° WSW 17:39:06 60° NW 17:56:54 10° NE daylight
25 Oct - 19:52:05 10° WNW 20:05:50 21° NNW 20:15:55 10° NNE visible
